Location: Eppenbrunn
(49.1158°N, 7.5601°E)
Time: 17:05:32
(UTC+00:00)

IGS 5A - Pass Details

Date: 25 June 2021
Orbit: 583 x 587 km, 97.6° (Epoch: 17 July)

Event Time Altitude Azimuth Distance (km) Brightness Sun altitude
Exits shadow 20:36:00 -1° 186° (S) 2,863 6.6 -7.5°
Rises 20:36:09 0° 187° (S) 2,805 6.5 -7.6°
Reaches altitude 10° 20:38:26 10° 196° (SSW) 1,910 5.7 -7.8°
Maximum altitude 20:42:15 36° 263° (W) 947 4.9 -8.2°
Drops below altitude 10° 20:46:07 10° 331° (NNW) 1,925 7.7 -8.6°
Sets 20:48:26 0° 340° (NNW) 2,831 8.6 -8.8°
